Terminal Aerodrome Forecast
Issued by NWS Portland, OR

Home | Current Version | Previous Version | Text Only | Print | Product List | Glossary On
Versions: 1 2 3 4 5 6 7 8 9 10 11 12 13 14 15 16 17 18 19 20 21 22 23 24 25 26 27 28 29
000
FTUS46 KPQR 300638 AAA
TAFSLE
TAF AMD
KSLE 300638Z 3007/3106 18012KT P6SM -RA SCT020 BKN035 OVC050
     FM301000 18012KT P6SM -SHRA SCT035 BKN050
     FM302000 21010KT P6SM VCSH SCT035 BKN050
     FM310200 20005KT P6SM BKN050=

USA.gov is the U.S. government's official web portal to all federal, state and local government web resources and services.